WZZ93D LEBL-LDSP

Flight info

Callsign WZZ93D
Flight time 1h 43m
Altitude 32000
Route LEBL/24L AGEN7Q AGENA DCT RASPA DCT LISKO DCT TORPO TORP1Z LDSP/KEMIX/I05Z
Aircraft A320/M-SDE3FGHIRWY/LB1

Departure

Time 2026-04-28 17:24
Airport Josep Tarradellas Barcelona-El Prat Airport (LEBL)

Arrival

Time 2026-04-28 19:07
Airport Split Saint Jerome Airport (LDSP)
Time Latitude Longitude Altitude Speed Heading
2026-04-28 16:50 41.28712 2.07702 18 ft 0 kts 338°
2026-04-28 17:13 41.28703 2.07707 18 ft 2 kts 338°
2026-04-28 17:14 41.28687 2.07715 20 ft 2 kts 338°
2026-04-28 17:14 41.28672 2.07724 21 ft 2 kts 352°
2026-04-28 17:14 41.28655 2.07727 20 ft 2 kts 24°
2026-04-28 17:14 41.28643 2.07716 21 ft 0 kts 60°
2026-04-28 17:15 41.28643 2.07717 23 ft 0 kts 60°
2026-04-28 17:19 41.28649 2.07732 19 ft 6 kts 63°
2026-04-28 17:19 41.28679 2.07814 19 ft 13 kts 65°
2026-04-28 17:19 41.28675 2.07935 19 ft 16 kts 134°
2026-04-28 17:19 41.28636 2.08064 18 ft 18 kts 69°
2026-04-28 17:20 41.28694 2.08238 18 ft 23 kts 64°
2026-04-28 17:20 41.28731 2.08346 19 ft 0 kts 65°
2026-04-28 17:20 41.28768 2.08456 19 ft 21 kts 66°
2026-04-28 17:20 41.28834 2.08647 20 ft 20 kts 65°
2026-04-28 17:21 41.28896 2.08827 18 ft 23 kts 65°
2026-04-28 17:21 41.28966 2.09034 20 ft 26 kts 66°
2026-04-28 17:21 41.29043 2.09271 18 ft 29 kts 66°
2026-04-28 17:22 41.29190 2.09690 18 ft 10 kts 64°
2026-04-28 17:22 41.29227 2.09799 18 ft 16 kts 66°
2026-04-28 17:22 41.29273 2.09963 18 ft 16 kts 84°
2026-04-28 17:23 41.29151 2.10132 14 ft 16 kts 249°
2026-04-28 17:23 41.29088 2.09928 16 ft 52 kts 245°
2026-04-28 17:23 41.28806 2.09137 15 ft 133 kts 245°
2026-04-28 17:23 41.28331 2.07841 384 ft 163 kts 239°
2026-04-28 17:24 41.27609 2.06733 1269 ft 158 kts 203°
2026-04-28 17:24 41.26561 2.06423 1890 ft 162 kts 181°
2026-04-28 17:24 41.25371 2.06341 2285 ft 186 kts 180°
2026-04-28 17:24 41.23985 2.06265 2659 ft 213 kts 181°
2026-04-28 17:25 41.22386 2.06157 3053 ft 245 kts 182°
2026-04-28 17:25 41.18860 2.05816 3803 ft 258 kts 184°
2026-04-28 17:25 41.17065 2.05618 4177 ft 259 kts 182°
2026-04-28 17:26 41.15261 2.05499 4559 ft 260 kts 181°
2026-04-28 17:26 41.13447 2.05425 4934 ft 261 kts 180°
2026-04-28 17:26 41.11621 2.05362 5304 ft 263 kts 181°
2026-04-28 17:26 41.09784 2.05297 5673 ft 265 kts 181°
2026-04-28 17:27 41.07929 2.05221 5933 ft 268 kts 181°
2026-04-28 17:27 41.06069 2.05141 5971 ft 268 kts 182°
2026-04-28 17:27 41.04205 2.05055 5974 ft 268 kts 182°
2026-04-28 17:27 41.02365 2.04970 6057 ft 269 kts 180°
2026-04-28 17:28 41.00501 2.05365 6940 ft 273 kts 161°
2026-04-28 17:28 40.97541 2.08508 8957 ft 283 kts 127°
2026-04-28 17:28 40.96394 2.10653 9931 ft 287 kts 127°
2026-04-28 17:29 40.95234 2.12836 10741 ft 295 kts 127°
2026-04-28 17:29 40.94000 2.15153 11093 ft 319 kts 127°
2026-04-28 17:29 40.92670 2.17635 11491 ft 338 kts 127°
2026-04-28 17:30 40.89905 2.22795 12923 ft 353 kts 128°
2026-04-28 17:30 40.88113 2.28941 14096 ft 375 kts 94°
2026-04-28 17:30 40.88378 2.32384 14801 ft 380 kts 75°
2026-04-28 17:31 40.89433 2.35597 15527 ft 383 kts 57°
2026-04-28 17:31 40.92685 2.41277 16925 ft 391 kts 51°
2026-04-28 17:32 40.96062 2.47016 18291 ft 400 kts 51°
2026-04-28 17:32 40.97777 2.49938 18919 ft 404 kts 52°
2026-04-28 17:32 40.99503 2.52897 19585 ft 407 kts 52°
2026-04-28 17:32 41.01217 2.55842 20256 ft 411 kts 52°
2026-04-28 17:33 41.02965 2.58851 20916 ft 414 kts 52°
2026-04-28 17:33 41.04729 2.61895 21574 ft 417 kts 52°
2026-04-28 17:33 41.06499 2.64957 22210 ft 420 kts 52°
2026-04-28 17:33 41.07701 2.67041 22636 ft 422 kts 52°
2026-04-28 17:34 41.10078 2.71166 23470 ft 427 kts 52°
2026-04-28 17:34 41.11888 2.74303 23998 ft 430 kts 52°
2026-04-28 17:34 41.13712 2.77463 24505 ft 432 kts 52°
2026-04-28 17:34 41.15546 2.80638 25007 ft 435 kts 52°
2026-04-28 17:35 41.17394 2.83838 25506 ft 437 kts 52°
2026-04-28 17:35 41.19250 2.87054 26001 ft 440 kts 52°
2026-04-28 17:35 41.21119 2.90291 26481 ft 442 kts 52°
2026-04-28 17:35 41.22992 2.93538 26948 ft 445 kts 52°
2026-04-28 17:36 41.24873 2.96810 27410 ft 447 kts 52°
2026-04-28 17:36 41.26749 3.00083 27869 ft 449 kts 52°
2026-04-28 17:36 41.28645 3.03401 28333 ft 452 kts 52°
2026-04-28 17:36 41.30558 3.06753 28777 ft 455 kts 52°
2026-04-28 17:37 41.32459 3.10079 29180 ft 458 kts 53°
2026-04-28 17:37 41.34408 3.13484 29605 ft 461 kts 53°
2026-04-28 17:37 41.36359 3.16895 30034 ft 464 kts 53°
2026-04-28 17:37 41.38323 3.20335 30403 ft 466 kts 53°
2026-04-28 17:38 41.40264 3.23747 30764 ft 469 kts 53°
2026-04-28 17:38 41.42248 3.27236 31121 ft 471 kts 53°
2026-04-28 17:38 41.44232 3.30729 31472 ft 473 kts 53°
2026-04-28 17:38 41.46201 3.34199 31852 ft 473 kts 53°
2026-04-28 17:39 41.48189 3.37708 31976 ft 470 kts 53°
2026-04-28 17:39 41.50128 3.41141 31997 ft 458 kts 53°
2026-04-28 17:40 41.55398 3.51572 32003 ft 452 kts 66°
2026-04-28 17:40 41.57944 3.59263 32001 ft 452 kts 67°
2026-04-28 17:41 41.60471 3.66912 32003 ft 452 kts 66°
2026-04-28 17:41 41.63016 3.74613 31999 ft 452 kts 67°
2026-04-28 17:42 41.65542 3.82276 31994 ft 451 kts 67°
2026-04-28 17:42 41.68067 3.89986 31995 ft 451 kts 67°
2026-04-28 17:43 41.70574 3.97651 31999 ft 452 kts 67°
2026-04-28 17:43 41.73099 4.05388 32002 ft 452 kts 67°
2026-04-28 17:44 41.75603 4.13085 32006 ft 453 kts 67°
2026-04-28 17:44 41.78109 4.20796 32004 ft 453 kts 67°
2026-04-28 17:45 41.80626 4.28560 32014 ft 453 kts 67°
2026-04-28 17:45 41.83115 4.36275 32017 ft 453 kts 67°
2026-04-28 17:46 41.85625 4.44065 32021 ft 453 kts 67°
2026-04-28 17:46 41.88106 4.51808 32020 ft 452 kts 67°
2026-04-28 17:47 41.90578 4.59550 32026 ft 453 kts 67°
2026-04-28 17:47 41.93056 4.67310 32025 ft 453 kts 67°
2026-04-28 17:48 41.95524 4.75074 32025 ft 453 kts 67°
2026-04-28 17:48 41.98000 4.82886 32024 ft 453 kts 67°
2026-04-28 17:49 42.00457 4.90650 32026 ft 453 kts 67°
2026-04-28 17:49 42.02927 4.98474 32023 ft 452 kts 67°
2026-04-28 17:50 42.05376 5.06247 32030 ft 452 kts 67°
2026-04-28 17:50 42.07808 5.14009 32031 ft 452 kts 68°
2026-04-28 17:51 42.10243 5.21822 32039 ft 452 kts 68°
2026-04-28 17:51 42.12673 5.29613 32036 ft 452 kts 68°
2026-04-28 17:52 42.15110 5.37466 32034 ft 452 kts 67°
2026-04-28 17:52 42.17819 5.49612 32041 ft 452 kts 75°
2026-04-28 17:53 42.19482 5.57804 32039 ft 452 kts 75°
2026-04-28 17:53 42.21120 5.65931 32039 ft 452 kts 75°
2026-04-28 17:54 42.22770 5.74108 32039 ft 451 kts 75°
2026-04-28 17:54 42.24409 5.82288 32041 ft 451 kts 75°
2026-04-28 17:55 42.26042 5.90484 32051 ft 452 kts 75°
2026-04-28 17:55 42.27674 5.98675 32042 ft 452 kts 75°
2026-04-28 17:56 42.29300 6.06878 32040 ft 452 kts 75°
2026-04-28 17:56 42.30640 6.13712 32038 ft 452 kts 75°
2026-04-28 17:57 42.32519 6.23277 32043 ft 453 kts 75°
2026-04-28 17:57 42.34127 6.31496 32043 ft 453 kts 75°
2026-04-28 17:58 42.35457 6.38352 32046 ft 453 kts 75°
2026-04-28 17:58 42.37061 6.46611 32037 ft 453 kts 75°
2026-04-28 17:59 42.38647 6.54813 32042 ft 452 kts 75°
2026-04-28 17:59 42.40228 6.63067 32044 ft 452 kts 75°
2026-04-28 18:00 42.41805 6.71314 32052 ft 452 kts 75°
2026-04-28 18:00 42.43377 6.79529 32045 ft 453 kts 75°
2026-04-28 18:01 42.44946 6.87766 32045 ft 453 kts 75°
2026-04-28 18:01 42.46508 6.96051 32044 ft 453 kts 75°
2026-04-28 18:02 42.48055 7.04290 32048 ft 453 kts 75°
2026-04-28 18:02 42.49613 7.12592 32045 ft 453 kts 75°
2026-04-28 18:03 42.51160 7.20842 32048 ft 453 kts 75°
2026-04-28 18:03 42.52703 7.29142 32047 ft 453 kts 76°
2026-04-28 18:04 42.54227 7.37401 32047 ft 453 kts 76°
2026-04-28 18:04 42.55747 7.45669 32047 ft 453 kts 76°
2026-04-28 18:05 42.57016 7.52583 32044 ft 453 kts 76°
2026-04-28 18:05 42.58786 7.62241 32037 ft 453 kts 76°
2026-04-28 18:06 42.60294 7.70548 32040 ft 453 kts 76°
2026-04-28 18:06 42.61789 7.78816 32045 ft 452 kts 76°
2026-04-28 18:07 42.63292 7.87146 32043 ft 452 kts 76°
2026-04-28 18:07 42.64775 7.95429 32041 ft 452 kts 76°
2026-04-28 18:08 42.66262 8.03747 32044 ft 452 kts 76°
2026-04-28 18:08 42.67731 8.12010 32040 ft 452 kts 76°
2026-04-28 18:09 42.69200 8.20333 32033 ft 452 kts 76°
2026-04-28 18:09 42.70661 8.28617 32029 ft 451 kts 76°
2026-04-28 18:10 42.72114 8.36901 32024 ft 452 kts 76°
2026-04-28 18:10 42.73565 8.45212 32022 ft 452 kts 76°
2026-04-28 18:11 42.75021 8.53572 32017 ft 453 kts 76°
2026-04-28 18:11 42.76465 8.61931 32015 ft 453 kts 76°
2026-04-28 18:12 42.77890 8.70231 32014 ft 453 kts 76°
2026-04-28 18:12 42.79321 8.78581 32013 ft 453 kts 76°
2026-04-28 18:13 42.80750 8.86947 32015 ft 453 kts 76°
2026-04-28 18:13 42.82171 8.95311 32022 ft 453 kts 76°
2026-04-28 18:14 42.83581 9.03684 32025 ft 453 kts 76°
2026-04-28 18:14 42.84982 9.12068 32035 ft 453 kts 76°
2026-04-28 18:15 42.86390 9.20463 32047 ft 453 kts 76°
2026-04-28 18:15 42.87785 9.28798 32038 ft 454 kts 76°
2026-04-28 18:16 42.89173 9.37199 32042 ft 454 kts 76°
2026-04-28 18:16 42.90555 9.45617 32044 ft 454 kts 76°
2026-04-28 18:17 42.91939 9.54027 32045 ft 454 kts 76°
2026-04-28 18:17 42.93315 9.62441 32049 ft 454 kts 76°
2026-04-28 18:18 42.94681 9.70856 32050 ft 454 kts 76°
2026-04-28 18:18 42.95815 9.77848 32054 ft 454 kts 76°
2026-04-28 18:19 42.97392 9.87647 32064 ft 455 kts 76°
2026-04-28 18:19 42.98743 9.96089 32064 ft 455 kts 76°
2026-04-28 18:20 43.00087 10.04533 32073 ft 455 kts 76°
2026-04-28 18:20 43.01423 10.12980 32069 ft 455 kts 76°
2026-04-28 18:21 43.02764 10.21429 32062 ft 455 kts 76°
2026-04-28 18:21 43.04086 10.29840 32062 ft 455 kts 77°
2026-04-28 18:22 43.05399 10.38296 32058 ft 454 kts 77°
2026-04-28 18:22 43.06698 10.46713 32053 ft 454 kts 77°
2026-04-28 18:23 43.08000 10.55169 32055 ft 454 kts 77°
2026-04-28 18:23 43.09301 10.63632 32053 ft 454 kts 77°
2026-04-28 18:24 43.10387 10.70729 32048 ft 455 kts 77°
2026-04-28 18:24 43.11887 10.80574 32049 ft 455 kts 77°
2026-04-28 18:25 43.13172 10.89056 32051 ft 455 kts 77°
2026-04-28 18:26 43.15084 11.01808 32043 ft 455 kts 77°
2026-04-28 18:26 43.16354 11.10296 32041 ft 455 kts 77°
2026-04-28 18:27 43.17622 11.18796 32041 ft 455 kts 77°
2026-04-28 18:27 43.18869 11.27229 32038 ft 455 kts 77°
2026-04-28 18:28 43.20114 11.35721 32031 ft 454 kts 77°
2026-04-28 18:28 43.21350 11.44216 32039 ft 453 kts 77°
2026-04-28 18:29 43.22580 11.52695 32039 ft 453 kts 77°
2026-04-28 18:29 43.23803 11.61168 32038 ft 453 kts 77°
2026-04-28 18:30 43.25022 11.69651 32044 ft 453 kts 77°
2026-04-28 18:30 43.26224 11.78089 32034 ft 453 kts 77°
2026-04-28 18:31 43.27435 11.86581 32033 ft 453 kts 77°
2026-04-28 18:31 43.28634 11.95075 32030 ft 453 kts 77°
2026-04-28 18:32 43.29828 12.03564 32032 ft 453 kts 77°
2026-04-28 18:32 43.31019 12.12084 32025 ft 453 kts 77°
2026-04-28 18:33 43.32200 12.20602 32023 ft 454 kts 77°
2026-04-28 18:33 43.33368 12.29059 31948 ft 455 kts 77°
2026-04-28 18:33 43.33958 12.33321 31740 ft 454 kts 77°
2026-04-28 18:34 43.34545 12.37587 31393 ft 454 kts 78°
2026-04-28 18:34 43.35127 12.41855 31041 ft 455 kts 78°
2026-04-28 18:34 43.35708 12.46136 30700 ft 456 kts 78°
2026-04-28 18:34 43.36287 12.50422 30373 ft 455 kts 78°
2026-04-28 18:35 43.36862 12.54695 30026 ft 453 kts 78°
2026-04-28 18:35 43.37435 12.58937 29624 ft 450 kts 78°
2026-04-28 18:35 43.38005 12.63152 29241 ft 448 kts 78°
2026-04-28 18:35 43.38574 12.67355 28981 ft 446 kts 78°
2026-04-28 18:36 43.39137 12.71544 28725 ft 445 kts 78°
2026-04-28 18:36 43.39687 12.75675 28486 ft 444 kts 78°
2026-04-28 18:36 43.40239 12.79844 28246 ft 442 kts 78°
2026-04-28 18:36 43.40788 12.84000 28005 ft 441 kts 78°
2026-04-28 18:37 43.41336 12.88145 27770 ft 440 kts 78°
2026-04-28 18:37 43.41882 12.92275 27533 ft 438 kts 78°
2026-04-28 18:37 43.42429 12.96395 27297 ft 437 kts 78°
2026-04-28 18:37 43.42969 13.00504 27064 ft 435 kts 78°
2026-04-28 18:38 43.43503 13.04599 26827 ft 434 kts 78°
2026-04-28 18:38 43.44035 13.08688 26608 ft 433 kts 78°
2026-04-28 18:38 43.44567 13.12769 26379 ft 432 kts 78°
2026-04-28 18:38 43.45095 13.16835 26155 ft 431 kts 78°
2026-04-28 18:39 43.45621 13.20886 25926 ft 429 kts 78°
2026-04-28 18:39 43.46140 13.24928 25722 ft 429 kts 78°
2026-04-28 18:39 43.46653 13.28963 25500 ft 428 kts 79°
2026-04-28 18:39 43.47166 13.32988 25282 ft 426 kts 78°
2026-04-28 18:40 43.47679 13.37008 25069 ft 425 kts 78°
2026-04-28 18:40 43.48191 13.41017 24854 ft 424 kts 78°
2026-04-28 18:40 43.48698 13.45009 24642 ft 423 kts 78°
2026-04-28 18:40 43.49198 13.48947 24433 ft 422 kts 78°
2026-04-28 18:41 43.49701 13.52920 24222 ft 421 kts 78°
2026-04-28 18:41 43.50203 13.56891 24013 ft 420 kts 78°
2026-04-28 18:41 43.50702 13.60862 23805 ft 419 kts 79°
2026-04-28 18:41 43.51196 13.64812 23597 ft 418 kts 79°
2026-04-28 18:42 43.51686 13.68757 23352 ft 417 kts 79°
2026-04-28 18:42 43.52174 13.72692 23113 ft 415 kts 79°
2026-04-28 18:42 43.52660 13.76608 22862 ft 414 kts 79°
2026-04-28 18:42 43.53144 13.80503 22637 ft 412 kts 79°
2026-04-28 18:43 43.53628 13.84393 22387 ft 410 kts 79°
2026-04-28 18:43 43.54108 13.88253 22144 ft 408 kts 79°
2026-04-28 18:43 43.54559 13.92114 21914 ft 407 kts 83°
2026-04-28 18:43 43.54524 13.95953 21692 ft 406 kts 94°
2026-04-28 18:44 43.54292 13.99832 21519 ft 405 kts 94°
2026-04-28 18:44 43.53803 14.07557 21156 ft 403 kts 95°
2026-04-28 18:44 43.53555 14.11403 20961 ft 402 kts 95°
2026-04-28 18:45 43.53310 14.15209 20762 ft 396 kts 95°
2026-04-28 18:45 43.53066 14.18988 20562 ft 394 kts 95°
2026-04-28 18:45 43.52903 14.21483 20431 ft 393 kts 95°
2026-04-28 18:45 43.52581 14.26441 20183 ft 391 kts 95°
2026-04-28 18:46 43.52336 14.30171 19987 ft 391 kts 95°
2026-04-28 18:46 43.52170 14.32689 19858 ft 390 kts 95°
2026-04-28 18:46 43.51844 14.37604 19586 ft 388 kts 95°
2026-04-28 18:46 43.51679 14.40105 19441 ft 387 kts 95°
2026-04-28 18:47 43.51436 14.43749 19228 ft 386 kts 95°
2026-04-28 18:47 43.51191 14.47420 19011 ft 384 kts 95°
2026-04-28 18:47 43.50945 14.51076 18807 ft 383 kts 95°
2026-04-28 18:47 43.50695 14.54767 18594 ft 381 kts 95°
2026-04-28 18:48 43.50451 14.58356 18388 ft 380 kts 95°
2026-04-28 18:48 43.50205 14.61983 18157 ft 379 kts 95°
2026-04-28 18:48 43.49957 14.65593 17908 ft 377 kts 95°
2026-04-28 18:48 43.49708 14.69178 17648 ft 375 kts 95°
2026-04-28 18:49 43.49462 14.72741 17385 ft 373 kts 95°
2026-04-28 18:49 43.49300 14.75090 17212 ft 371 kts 95°
2026-04-28 18:49 43.48973 14.79812 16865 ft 368 kts 95°
2026-04-28 18:49 43.48730 14.83273 16607 ft 359 kts 95°
2026-04-28 18:50 43.48490 14.86661 16351 ft 353 kts 95°
2026-04-28 18:50 43.48252 14.90011 16102 ft 350 kts 95°
2026-04-28 18:50 43.48016 14.93298 15816 ft 348 kts 95°
2026-04-28 18:50 43.47778 14.96600 15471 ft 345 kts 95°
2026-04-28 18:51 43.47541 14.99873 15124 ft 342 kts 95°
2026-04-28 18:51 43.47307 15.03125 14785 ft 340 kts 95°
2026-04-28 18:51 43.47075 15.06343 14460 ft 337 kts 95°
2026-04-28 18:51 43.46844 15.09534 14144 ft 332 kts 95°
2026-04-28 18:52 43.46619 15.12646 13833 ft 321 kts 95°
2026-04-28 18:52 43.46397 15.15701 13490 ft 319 kts 95°
2026-04-28 18:52 43.46174 15.18737 13147 ft 317 kts 95°
2026-04-28 18:52 43.45951 15.21757 12805 ft 316 kts 95°
2026-04-28 18:53 43.45732 15.24719 12475 ft 314 kts 95°
2026-04-28 18:53 43.45510 15.27734 12143 ft 313 kts 95°
2026-04-28 18:53 43.45295 15.30674 11815 ft 310 kts 95°
2026-04-28 18:53 43.45078 15.33621 11492 ft 308 kts 95°
2026-04-28 18:54 43.44860 15.36544 11172 ft 305 kts 96°
2026-04-28 18:54 43.44643 15.39430 10848 ft 298 kts 96°
2026-04-28 18:54 43.44433 15.42231 10525 ft 291 kts 96°
2026-04-28 18:54 43.44223 15.44990 10220 ft 289 kts 96°
2026-04-28 18:55 43.44013 15.47732 9903 ft 287 kts 96°
2026-04-28 18:55 43.43803 15.50464 9566 ft 286 kts 96°
2026-04-28 18:55 43.43596 15.53191 9230 ft 286 kts 96°
2026-04-28 18:55 43.43389 15.55881 8888 ft 277 kts 96°
2026-04-28 18:56 43.43190 15.58476 8552 ft 270 kts 96°
2026-04-28 18:56 43.42996 15.60997 8193 ft 268 kts 96°
2026-04-28 18:56 43.42798 15.63535 7817 ft 265 kts 96°
2026-04-28 18:56 43.42600 15.66061 7444 ft 264 kts 96°
2026-04-28 18:57 43.42406 15.68563 7081 ft 262 kts 96°
2026-04-28 18:57 43.42211 15.71054 6718 ft 261 kts 96°
2026-04-28 18:57 43.42019 15.73527 6353 ft 259 kts 96°
2026-04-28 18:57 43.41828 15.75982 5971 ft 257 kts 96°
2026-04-28 18:58 43.41638 15.78397 5598 ft 250 kts 96°
2026-04-28 18:58 43.41454 15.80731 5228 ft 241 kts 96°
2026-04-28 18:58 43.41277 15.82984 4856 ft 233 kts 96°
2026-04-28 18:58 43.41104 15.85165 4525 ft 224 kts 96°
2026-04-28 18:59 43.40938 15.87237 4156 ft 219 kts 96°
2026-04-28 18:59 43.40773 15.89307 3921 ft 217 kts 96°
2026-04-28 18:59 43.40609 15.91341 3766 ft 209 kts 96°
2026-04-28 18:59 43.40450 15.93308 3637 ft 206 kts 96°
2026-04-28 19:00 43.40290 15.95263 3480 ft 206 kts 96°
2026-04-28 19:00 43.40132 15.97197 3331 ft 199 kts 96°
2026-04-28 19:00 43.39980 15.99064 3178 ft 195 kts 96°
2026-04-28 19:00 43.39831 16.00896 3023 ft 190 kts 96°
2026-04-28 19:01 43.39696 16.02689 2902 ft 187 kts 92°
2026-04-28 19:01 43.39881 16.04390 2823 ft 180 kts 70°
2026-04-28 19:01 43.40501 16.05850 2809 ft 176 kts 52°
2026-04-28 19:01 43.41251 16.07180 2813 ft 176 kts 52°
2026-04-28 19:02 43.41990 16.08496 2810 ft 172 kts 52°
2026-04-28 19:02 43.42719 16.09795 2809 ft 171 kts 52°
2026-04-28 19:02 43.43444 16.11088 2809 ft 170 kts 52°
2026-04-28 19:02 43.44164 16.12373 2826 ft 169 kts 52°
2026-04-28 19:03 43.44882 16.13654 2687 ft 167 kts 52°
2026-04-28 19:03 43.45581 16.14903 2494 ft 162 kts 52°
2026-04-28 19:03 43.46261 16.16119 2293 ft 158 kts 52°
2026-04-28 19:03 43.46922 16.17299 2081 ft 149 kts 52°
2026-04-28 19:04 43.47526 16.18380 1896 ft 138 kts 52°
2026-04-28 19:04 43.48106 16.19418 1718 ft 136 kts 52°
2026-04-28 19:04 43.48672 16.20432 1543 ft 135 kts 52°
2026-04-28 19:04 43.49249 16.21464 1361 ft 136 kts 52°
2026-04-28 19:05 43.49829 16.22503 1184 ft 138 kts 52°
2026-04-28 19:05 43.50415 16.23553 1001 ft 138 kts 52°
2026-04-28 19:05 43.50999 16.24598 820 ft 136 kts 52°
2026-04-28 19:05 43.51572 16.25627 642 ft 134 kts 52°
2026-04-28 19:06 43.52135 16.26637 464 ft 132 kts 52°
2026-04-28 19:06 43.52501 16.27301 341 ft 131 kts 52°
2026-04-28 19:06 43.53238 16.28623 121 ft 130 kts 52°
2026-04-28 19:06 43.53741 16.29518 85 ft 98 kts 52°
2026-04-28 19:07 43.54053 16.30074 77 ft 48 kts 52°
2026-04-28 19:07 43.54180 16.30302 78 ft 28 kts 53°
2026-04-28 19:07 43.54303 16.30526 80 ft 31 kts 53°
2026-04-28 19:07 43.54444 16.30757 73 ft 24 kts 46°
2026-04-28 19:08 43.54560 16.30957 67 ft 30 kts 52°
2026-04-28 19:08 43.54553 16.31013 66 ft 8 kts 249°
2026-04-28 19:08 43.54502 16.30904 71 ft 17 kts 232°
2026-04-28 19:08 43.54422 16.30760 73 ft 22 kts 233°
2026-04-28 19:09 43.54315 16.30571 74 ft 28 kts 232°
2026-04-28 19:09 43.54185 16.30338 74 ft 34 kts 235°
2026-04-28 19:09 43.54030 16.30115 73 ft 27 kts 203°
2026-04-28 19:09 43.53906 16.30047 69 ft 19 kts 217°
2026-04-28 19:10 43.53813 16.29890 80 ft 24 kts 236°
2026-04-28 19:10 43.53722 16.29729 84 ft 13 kts 233°
2026-04-28 19:10 43.53681 16.29720 85 ft 8 kts 115°
2026-04-28 19:10 43.53677 16.29785 86 ft 0 kts 103°